Time,TemperatureF,DewpointF,PressureIn,WindDirection,WindDirectionDegrees,WindSpeedMPH,WindSpeedGustMPH,Humidity,HourlyPrecipIn,Conditions,Clouds,dailyrainin,SolarRadiationWatts/m^2,SoftwareType,DateUTC
2013-08-09 00:01:00,73.0,39.0,-100.00,South,182,8.0,13.0,30,0.00,,,-99.99,0.000000,,2013-08-09 06:01:00,
2013-08-09 00:32:00,72.0,39.0,-100.00,South,171,9.0,13.0,30,0.00,,,-99.99,0.000000,,2013-08-09 06:32:00,
2013-08-09 00:43:00,71.0,37.0,-100.00,South,175,8.0,12.0,29,0.00,,,-99.99,0.000000,,2013-08-09 06:43:00,
2013-08-09 00:52:00,71.0,37.0,-100.00,South,175,8.0,12.0,29,0.00,,,-99.99,0.000000,,2013-08-09 06:52:00,
2013-08-09 01:01:00,72.0,36.0,-100.00,South,180,7.0,11.0,27,0.00,,,-99.99,0.000000,,2013-08-09 07:01:00,
2013-08-09 01:12:00,72.0,36.0,-100.00,South,180,7.0,11.0,27,0.00,,,-99.99,0.000000,,2013-08-09 07:12:00,
2013-08-09 01:21:00,71.0,37.0,-100.00,SSW,195,6.0,10.0,29,0.00,,,-99.99,0.000000,,2013-08-09 07:21:00,
2013-08-09 01:33:00,63.0,38.0,-100.00,East,89,3.0,4.0,39,0.00,,,-99.99,0.000000,,2013-08-09 07:33:00,
2013-08-09 01:43:00,63.0,40.0,-100.00,ESE,121,4.0,6.0,43,0.00,,,-99.99,0.000000,,2013-08-09 07:43:00,
2013-08-09 01:50:00,58.0,42.0,-100.00,SW,215,3.0,5.0,54,0.00,,,-99.99,0.000000,,2013-08-09 07:50:00,
2013-08-09 02:21:00,58.0,42.0,-100.00,SW,215,3.0,5.0,54,0.00,,,-99.99,0.000000,,2013-08-09 08:21:00,
2013-08-09 02:32:00,58.0,42.0,-100.00,SW,215,3.0,5.0,54,0.00,,,-99.99,0.000000,,2013-08-09 08:32:00,
2013-08-09 02:43:00,58.0,42.0,-100.00,SW,215,3.0,5.0,54,0.00,,,-99.99,0.000000,,2013-08-09 08:43:00,
2013-08-09 03:32:00,65.0,36.0,-100.00,SE,140,7.0,10.0,34,0.00,,,-99.99,0.000000,,2013-08-09 09:32:00,
2013-08-09 03:43:00,65.0,34.0,-100.00,SE,134,8.0,12.0,31,0.00,,,-99.99,0.000000,,2013-08-09 09:43:00,
2013-08-09 03:52:00,65.0,34.0,-100.00,SE,134,8.0,12.0,31,0.00,,,-99.99,0.000000,,2013-08-09 09:52:00,
2013-08-09 04:01:00,65.0,34.0,-100.00,SE,134,8.0,10.0,31,0.00,,,-99.99,0.000000,,2013-08-09 10:01:00,
2013-08-09 04:32:00,68.0,40.0,-100.00,SSW,203,5.0,8.0,37,0.00,,,-99.99,0.000000,,2013-08-09 10:32:00,
2013-08-09 04:43:00,62.0,41.0,-100.00,West,277,3.0,5.0,46,0.00,,,-99.99,0.000000,,2013-08-09 10:43:00,
2013-08-09 04:53:00,62.0,41.0,-100.00,West,277,3.0,5.0,46,0.00,,,-99.99,0.000000,,2013-08-09 10:53:00,
2013-08-09 05:01:00,60.0,39.0,-100.00,ENE,68,2.0,6.0,45,0.00,,,-99.99,0.000000,,2013-08-09 11:01:00,
2013-08-09 05:11:00,59.0,44.0,-100.00,SSE,155,1.0,4.0,57,0.00,,,-99.99,0.000000,,2013-08-09 11:11:00,
2013-08-09 05:21:00,58.0,41.0,-100.00,SSE,157,3.0,6.0,54,0.00,,,-99.99,0.000000,,2013-08-09 11:21:00,
2013-08-09 05:33:00,59.0,38.0,-100.00,South,177,6.0,7.0,46,0.00,,,-99.99,0.000000,,2013-08-09 11:33:00,
2013-08-09 05:42:00,63.0,37.0,-100.00,SSE,162,6.0,8.0,39,0.00,,,-99.99,0.000000,,2013-08-09 11:42:00,
2013-08-09 05:53:00,63.0,37.0,-100.00,SSE,162,6.0,8.0,39,0.00,,,-99.99,0.000000,,2013-08-09 11:53:00,
2013-08-09 06:02:00,65.0,33.0,-100.00,SE,146,6.0,8.0,31,0.00,,,-99.99,0.000000,,2013-08-09 12:02:00,
2013-08-09 06:22:00,65.0,37.0,-100.00,SSE,160,6.0,9.0,36,0.00,,,-99.99,0.000000,,2013-08-09 12:22:00,
2013-08-09 06:32:00,62.0,35.0,-100.00,WSW,239,3.0,7.0,36,0.00,,,-99.99,0.000000,,2013-08-09 12:32:00,
2013-08-09 06:43:00,59.0,36.0,-100.00,SSW,210,1.0,4.0,43,0.00,,,-99.99,1.000000,,2013-08-09 12:43:00,
2013-08-09 06:50:00,56.0,38.0,-100.00,SE,140,4.0,5.0,51,0.00,,,-99.99,12.000000,,2013-08-09 12:50:00,
2013-08-09 07:01:00,58.0,39.0,-100.00,South,182,1.0,4.0,49,0.00,,,-99.99,3.000000,,2013-08-09 13:01:00,
2013-08-09 07:23:00,56.0,38.0,-100.00,SE,140,4.0,5.0,51,0.00,,,-99.99,12.000000,,2013-08-09 13:23:00,
2013-08-09 07:32:00,56.0,38.0,-100.00,SE,140,4.0,5.0,51,0.00,,,-99.99,12.000000,,2013-08-09 13:32:00,
2013-08-09 07:43:00,56.0,38.0,-100.00,SE,140,4.0,5.0,51,0.00,,,-99.99,12.000000,,2013-08-09 13:43:00,
2013-08-09 08:33:00,65.0,45.0,-100.00,SE,132,3.0,4.0,47,0.00,,,-99.99,223.000000,,2013-08-09 14:33:00,
2013-08-09 08:53:00,69.0,45.0,-100.00,WSW,237,3.0,5.0,41,0.00,,,-99.99,325.000000,,2013-08-09 14:53:00,
2013-08-09 09:22:00,70.0,48.0,-100.00,SW,232,1.0,2.0,46,0.00,,,-99.99,400.000000,,2013-08-09 15:22:00,
2013-08-09 09:43:00,73.0,49.0,-100.00,ESE,111,2.0,4.0,43,0.00,,,-99.99,549.000000,,2013-08-09 15:43:00,
2013-08-09 09:53:00,73.0,49.0,-100.00,ESE,111,2.0,4.0,43,0.00,,,-99.99,549.000000,,2013-08-09 15:53:00,
2013-08-09 10:01:00,74.0,46.0,-100.00,WNW,288,2.0,3.0,37,0.00,,,-99.99,535.000000,,2013-08-09 16:01:00,
2013-08-09 10:11:00,73.0,45.0,-100.00,NW,311,1.0,3.0,37,0.00,,,-99.99,111.000000,,2013-08-09 16:11:00,
2013-08-09 10:22:00,74.0,49.0,-100.00,South,188,3.0,5.0,41,0.00,,,-99.99,591.000000,,2013-08-09 16:22:00,
2013-08-09 10:32:00,75.0,47.0,-100.00,ENE,61,4.0,4.0,36,0.00,,,-99.99,616.000000,,2013-08-09 16:32:00,
2013-08-09 10:43:00,76.0,45.0,-100.00,SSW,212,3.0,5.0,34,0.00,,,-99.99,671.000000,,2013-08-09 16:43:00,
2013-08-09 11:32:00,79.0,44.0,-100.00,WNW,299,2.0,4.0,30,0.00,,,-99.99,767.000000,,2013-08-09 17:32:00,
2013-08-09 11:50:00,83.0,46.0,-100.00,NW,310,3.0,7.0,28,0.00,,,-99.99,887.000000,,2013-08-09 17:50:00,
2013-08-09 11:52:00,80.0,44.0,-100.00,ESE,113,3.0,5.0,28,0.00,,,-99.99,812.000000,,2013-08-09 17:52:00,
2013-08-09 12:01:00,81.0,46.0,-100.00,SW,229,1.0,3.0,30,0.00,,,-99.99,833.000000,,2013-08-09 18:01:00,
2013-08-09 12:22:00,83.0,46.0,-100.00,NW,310,3.0,7.0,28,0.00,,,-99.99,887.000000,,2013-08-09 18:22:00,
2013-08-09 12:32:00,83.0,46.0,-100.00,NW,310,3.0,7.0,28,0.00,,,-99.99,887.000000,,2013-08-09 18:32:00,
2013-08-09 12:43:00,83.0,46.0,-100.00,NW,310,3.0,7.0,28,0.00,,,-99.99,887.000000,,2013-08-09 18:43:00,
2013-08-09 13:32:00,79.0,52.0,-100.00,NW,321,5.0,7.0,39,0.00,,,-99.99,229.000000,,2013-08-09 19:32:00,
2013-08-09 13:52:00,75.0,45.0,-100.00,SW,230,5.0,12.0,35,0.00,,,-99.99,89.000000,,2013-08-09 19:52:00,
2013-08-09 14:02:00,75.0,42.0,-100.00,SW,230,10.0,16.0,30,0.00,,,-99.99,75.000000,,2013-08-09 20:02:00,
2013-08-09 14:32:00,70.0,46.0,-100.00,ESE,111,13.0,17.0,42,0.00,,,-99.99,94.000000,,2013-08-09 20:32:00,
2013-08-09 14:43:00,69.0,53.0,-100.00,ESE,107,4.0,9.0,56,0.00,,,-99.99,167.000000,,2013-08-09 20:43:00,
2013-08-09 14:52:00,69.0,53.0,-100.00,ESE,107,4.0,9.0,56,0.00,,,-99.99,167.000000,,2013-08-09 20:52:00,
2013-08-09 15:01:00,70.0,49.0,-100.00,South,186,6.0,12.0,46,0.00,,,-99.99,264.000000,,2013-08-09 21:01:00,
2013-08-09 15:32:00,76.0,49.0,-100.00,East,97,5.0,8.0,39,0.00,,,-99.99,319.000000,,2013-08-09 21:32:00,
2013-08-09 15:43:00,78.0,44.0,-100.00,ENE,64,6.0,9.0,30,0.00,,,-99.99,162.000000,,2013-08-09 21:43:00,
2013-08-09 15:52:00,78.0,44.0,-100.00,ENE,64,6.0,9.0,30,0.00,,,-99.99,162.000000,,2013-08-09 21:52:00,
2013-08-09 16:01:00,74.0,48.0,-100.00,ESE,103,7.0,14.0,40,0.00,,,-99.99,53.000000,,2013-08-09 22:01:00,
2013-08-09 16:32:00,71.0,44.0,-100.00,SSE,165,8.0,12.0,39,0.00,,,-99.99,11.000000,,2013-08-09 22:32:00,
2013-08-09 16:50:00,70.0,48.0,-100.00,ENE,73,4.0,6.0,45,0.00,,,-99.99,85.000000,,2013-08-09 22:50:00,
2013-08-09 16:52:00,67.0,49.0,-100.00,ESE,109,8.0,15.0,52,0.00,,,-99.99,24.000000,,2013-08-09 22:52:00,
2013-08-09 17:21:00,70.0,48.0,-100.00,ENE,73,4.0,6.0,45,0.00,,,-99.99,85.000000,,2013-08-09 23:21:00,
2013-08-09 17:32:00,70.0,48.0,-100.00,ENE,73,4.0,6.0,45,0.00,,,-99.99,85.000000,,2013-08-09 23:32:00,
2013-08-09 17:43:00,70.0,48.0,-100.00,ENE,73,4.0,6.0,45,0.00,,,-99.99,85.000000,,2013-08-09 23:43:00,
2013-08-09 18:52:00,76.0,46.0,-100.00,ENE,75,8.0,11.0,35,0.00,,,-99.99,357.000000,,2013-08-10 00:52:00,
2013-08-09 19:01:00,76.0,46.0,-100.00,South,190,4.0,8.0,35,0.00,,,-99.99,248.000000,,2013-08-10 01:01:00,
2013-08-09 19:11:00,76.0,46.0,-100.00,South,190,4.0,8.0,35,0.00,,,-99.99,248.000000,,2013-08-10 01:11:00,
2013-08-09 19:21:00,73.0,50.0,-100.00,SW,229,4.0,9.0,44,0.00,,,-99.99,234.000000,,2013-08-10 01:21:00,
2013-08-09 19:32:00,77.0,41.0,-100.00,SSE,154,8.0,12.0,28,0.00,,,-99.99,251.000000,,2013-08-10 01:32:00,
2013-08-09 19:42:00,76.0,43.0,-100.00,SSE,162,9.0,13.0,31,0.00,,,-99.99,128.000000,,2013-08-10 01:42:00,
2013-08-09 19:52:00,75.0,42.0,-100.00,South,171,9.0,14.0,31,0.00,,,-99.99,126.000000,,2013-08-10 01:52:00,
2013-08-09 20:03:00,74.0,42.0,-100.00,South,171,11.0,16.0,31,0.00,,,-99.99,114.000000,,2013-08-10 02:03:00,
2013-08-09 20:11:00,74.0,42.0,-100.00,South,172,12.0,16.0,31,0.00,,,-99.99,90.000000,,2013-08-10 02:11:00,
2013-08-09 20:21:00,74.0,41.0,-100.00,SSE,163,11.0,16.0,30,0.00,,,-99.99,77.000000,,2013-08-10 02:21:00,
2013-08-09 20:32:00,74.0,41.0,-100.00,SSE,166,11.0,15.0,30,0.00,,,-99.99,48.000000,,2013-08-10 02:32:00,
2013-08-09 20:42:00,74.0,40.0,-100.00,South,174,10.0,16.0,30,0.00,,,-99.99,26.000000,,2013-08-10 02:42:00,
2013-08-09 20:52:00,75.0,38.0,-100.00,SSE,161,11.0,15.0,27,0.00,,,-99.99,9.000000,,2013-08-10 02:52:00,
2013-08-09 21:01:00,74.0,38.0,-100.00,SSE,166,10.0,16.0,28,0.00,,,-99.99,1.000000,,2013-08-10 03:01:00,
2013-08-09 21:11:00,74.0,39.0,-100.00,South,171,10.0,16.0,28,0.00,,,-99.99,0.000000,,2013-08-10 03:11:00,
2013-08-09 21:32:00,73.0,39.0,-100.00,SSE,165,10.0,14.0,29,0.00,,,-99.99,0.000000,,2013-08-10 03:32:00,
2013-08-09 21:42:00,73.0,40.0,-100.00,South,173,11.0,15.0,30,0.00,,,-99.99,0.000000,,2013-08-10 03:42:00,
2013-08-09 21:50:00,73.0,41.0,-100.00,SSE,160,11.0,16.0,31,0.00,,,-99.99,0.000000,,2013-08-10 03:50:00,
2013-08-09 21:51:00,74.0,39.0,-100.00,SSE,162,12.0,18.0,29,0.00,,,-99.99,0.000000,,2013-08-10 03:51:00,
2013-08-09 22:01:00,74.0,39.0,-100.00,SSE,166,11.0,15.0,28,0.00,,,-99.99,0.000000,,2013-08-10 04:01:00,
2013-08-09 22:11:00,73.0,41.0,-100.00,SSE,160,11.0,16.0,31,0.00,,,-99.99,0.000000,,2013-08-10 04:11:00,
2013-08-09 22:22:00,73.0,41.0,-100.00,SSE,160,11.0,16.0,31,0.00,,,-99.99,0.000000,,2013-08-10 04:22:00,
2013-08-09 22:32:00,73.0,41.0,-100.00,SSE,160,11.0,16.0,31,0.00,,,-99.99,0.000000,,2013-08-10 04:32:00,
2013-08-09 22:42:00,73.0,41.0,-100.00,SSE,160,11.0,16.0,31,0.00,,,-99.99,0.000000,,2013-08-10 04:42:00,
2013-08-09 23:32:00,72.0,40.0,-100.00,South,178,8.0,13.0,32,0.00,,,-99.99,0.000000,,2013-08-10 05:32:00,
2013-08-09 23:43:00,72.0,40.0,-100.00,South,174,9.0,18.0,31,0.00,,,-99.99,0.000000,,2013-08-10 05:43:00,
2013-08-09 23:52:00,72.0,40.0,-100.00,South,174,9.0,18.0,31,0.00,,,-99.99,0.000000,,2013-08-10 05:52:00,